This is the latest recevied weather packets stored in our database for station/object 5B4APJ-13. If no packets are shown the sender has not sent any weather packets the latest 10 day(s).
| Time | Temp. | Humidity | Pressure | Rain* | Wind** | Luminosity | Snow |
|---|---|---|---|---|---|---|---|
| 1788141197 | 76° F | 47% | 755.7 mmHg | 0 in | 4 mph, 242° | 0 W/m² | - |
| 1788140897 | 76° F | 47% | 755.6 mmHg | 0 in | 4 mph, 239° | 0 W/m² | - |
| 1788140597 | 76° F | 47% | 755.8 mmHg | 0 in | 4 mph, 239° | 0 W/m² | - |
| 1788140297 | 76° F | 47% | 755.6 mmHg | 0 in | 3 mph, 231° | 0 W/m² | - |
| 1788139997 | 76° F | 47% | 755.8 mmHg | 0 in | 4 mph, 224° | 0 W/m² | - |
| 1788139697 | 76° F | 47% | 755.9 mmHg | 0 in | 2 mph, 223° | 0 W/m² | - |
| 1788139397 | 76° F | 47% | 755.8 mmHg | 0 in | 4 mph, 227° | 0 W/m² | - |
| 1788139097 | 76° F | 47% | 756 mmHg | 0 in | 3 mph, 227° | 0 W/m² | - |
| 1788138797 | 74° F | 50% | 755.8 mmHg | 0 in | 2 mph, 229° | 0 W/m² | - |
| 1788138496 | 73° F | 51% | 755.8 mmHg | 0 in | 1 mph, 213° | 0 W/m² | - |
| 1788138197 | 74° F | 51% | 755.9 mmHg | 0 in | 0 mph | 0 W/m² | - |
| 1788137896 | 74° F | 50% | 755.8 mmHg | 0 in | 0 mph | 0 W/m² | - |
| 1788137597 | 74° F | 50% | 755.8 mmHg | 0 in | 0 mph | 0 W/m² | - |
| 1788137296 | 74° F | 50% | 755.8 mmHg | 0 in | 0 mph | 0 W/m² | - |
| 1788136996 | 74° F | 49% | 755.6 mmHg | 0 in | 0 mph | 0 W/m² | - |
| 1788136697 | 75° F | 48% | 755.8 mmHg | 0 in | 1 mph, 221° | 0 W/m² | - |
| 1788136397 | 76° F | 47% | 755.6 mmHg | 0 in | 0 mph | 0 W/m² | - |
| 1788136097 | 76° F | 46% | 755.8 mmHg | 0 in | 2 mph, 235° | 0 W/m² | - |
| 1788135797 | 76° F | 46% | 755.7 mmHg | 0 in | 2 mph, 250° | 0 W/m² | - |
| 1788135497 | 76° F | 45% | 755.5 mmHg | 0 in | 3 mph, 248° | 0 W/m² | - |
| 1788135196 | 76° F | 45% | 755.5 mmHg | 0 in | 3 mph, 238° | 0 W/m² | - |
| 1788134896 | 76° F | 45% | 755.6 mmHg | 0 in | 2 mph, 237° | 0 W/m² | - |
| 1788134597 | 75° F | 46% | 755.6 mmHg | 0 in | 2 mph, 231° | 0 W/m² | - |
| 1788134296 | 74° F | 48% | 755.7 mmHg | 0 in | 2 mph, 224° | 0 W/m² | - |
| 1788133996 | 74° F | 51% | 755.6 mmHg | 0 in | 0 mph | 0 W/m² | - |
* Rain latest hour (hover to see other rain measurements)
** Current wind speed in m/s (hover to see current wind gust speed)